owner,sensor,date,latitude,longitude,mass_concentration_of_chlorophyll_in_sea_water,qcFlag 
SCCF RECON,ioos:station:SCCF:18:1,2016-12-01T00:00:00Z,26.6955,-81.8138,29.62,1111122 
SCCF RECON,ioos:station:SCCF:18:1,2016-12-01T01:00:00Z,26.6955,-81.8138,25.11,1111122 
SCCF RECON,ioos:station:SCCF:18:1,2016-12-01T02:00:00Z,26.6955,-81.8138,18.83,1111122 
SCCF RECON,ioos:station:SCCF:18:1,2016-12-01T03:00:00Z,26.6955,-81.8138,9.4,1111122 
SCCF RECON,ioos:station:SCCF:18:1,2016-12-01T04:00:00Z,26.6955,-81.8138,7.21,1111122 
SCCF RECON,ioos:station:SCCF:18:1,2016-12-01T05:00:00Z,26.6955,-81.8138,6.38,1111122 
SCCF RECON,ioos:station:SCCF:18:1,2016-12-01T06:00:00Z,26.6955,-81.8138,5.03,1111122 
SCCF RECON,ioos:station:SCCF:18:1,2016-12-01T07:00:00Z,26.6955,-81.8138,5.68,1111122 
SCCF RECON,ioos:station:SCCF:18:1,2016-12-01T08:00:00Z,26.6955,-81.8138,9.19,1111122 
SCCF RECON,ioos:station:SCCF:18:1,2016-12-01T09:00:00Z,26.6955,-81.8138,12.52,1111122 
SCCF RECON,ioos:station:SCCF:18:1,2016-12-01T10:00:00Z,26.6955,-81.8138,12.87,1111122 
SCCF RECON,ioos:station:SCCF:18:1,2016-12-01T11:00:00Z,26.6955,-81.8138,5.81,1111122 
SCCF RECON,ioos:station:SCCF:18:1,2016-12-01T12:00:00Z,26.6955,-81.8138,10.85,1111122 
SCCF RECON,ioos:station:SCCF:18:1,2016-12-01T13:00:00Z,26.6955,-81.8138,20.97,1111122 
SCCF RECON,ioos:station:SCCF:18:1,2016-12-01T14:00:00Z,26.6955,-81.8138,12.02,1111122 
SCCF RECON,ioos:station:SCCF:18:1,2016-12-01T15:00:00Z,26.6955,-81.8138,14.81,1111122 
SCCF RECON,ioos:station:SCCF:18:1,2016-12-01T16:00:00Z,26.6955,-81.8138,14.62,1111122 
SCCF RECON,ioos:station:SCCF:18:1,2016-12-01T17:00:00Z,26.6955,-81.8138,9.13,1111122 
SCCF RECON,ioos:station:SCCF:18:1,2016-12-01T18:00:00Z,26.6955,-81.8138,4.43,1111122 
SCCF RECON,ioos:station:SCCF:18:1,2016-12-01T19:00:00Z,26.6955,-81.8138,8.91,1111122 
SCCF RECON,ioos:station:SCCF:18:1,2016-12-01T20:00:00Z,26.6955,-81.8138,7.21,1111122 
SCCF RECON,ioos:station:SCCF:18:1,2016-12-01T21:00:00Z,26.6955,-81.8138,10.22,1111122 
SCCF RECON,ioos:station:SCCF:18:1,2016-12-01T22:00:00Z,26.6955,-81.8138,6.59,1111122 
SCCF RECON,ioos:station:SCCF:18:1,2016-12-01T23:00:00Z,26.6955,-81.8138,12.51,1111122 
SCCF RECON,ioos:station:SCCF:18:1,2016-12-02T00:00:00Z,26.6955,-81.8138,19.71,1111122 
SCCF RECON,ioos:station:SCCF:18:1,2016-12-02T01:00:00Z,26.6955,-81.8138,6.01,1111122 
SCCF RECON,ioos:station:SCCF:18:1,2016-12-02T02:00:00Z,26.6955,-81.8138,8.7,1111122 
SCCF RECON,ioos:station:SCCF:18:1,2016-12-02T03:00:00Z,26.6955,-81.8138,6.99,1111122 
SCCF RECON,ioos:station:SCCF:18:1,2016-12-02T04:00:00Z,26.6955,-81.8138,11.62,1111122 
SCCF RECON,ioos:station:SCCF:18:1,2016-12-02T05:00:00Z,26.6955,-81.8138,3.98,1111122 
SCCF RECON,ioos:station:SCCF:18:1,2016-12-02T06:00:00Z,26.6955,-81.8138,4.36,1111122 
SCCF RECON,ioos:station:SCCF:18:1,2016-12-02T07:00:00Z,26.6955,-81.8138,4.19,1111122 
SCCF RECON,ioos:station:SCCF:18:1,2016-12-02T08:00:00Z,26.6955,-81.8138,9.5,1111122 
SCCF RECON,ioos:station:SCCF:18:1,2016-12-02T09:00:00Z,26.6955,-81.8138,4.07,1111122 
SCCF RECON,ioos:station:SCCF:18:1,2016-12-02T10:00:00Z,26.6955,-81.8138,4.64,1111122 
SCCF RECON,ioos:station:SCCF:18:1,2016-12-02T11:00:00Z,26.6955,-81.8138,5.09,1111122 
SCCF RECON,ioos:station:SCCF:18:1,2016-12-02T12:00:00Z,26.6955,-81.8138,6.22,1111122 
SCCF RECON,ioos:station:SCCF:18:1,2016-12-02T13:00:00Z,26.6955,-81.8138,5.3,1111122 
SCCF RECON,ioos:station:SCCF:18:1,2016-12-02T14:00:00Z,26.6955,-81.8138,18.05,1111122 
SCCF RECON,ioos:station:SCCF:18:1,2016-12-02T15:00:00Z,26.6955,-81.8138,10.18,1111122 
SCCF RECON,ioos:station:SCCF:18:1,2016-12-02T16:00:00Z,26.6955,-81.8138,11.73,1111122 
SCCF RECON,ioos:station:SCCF:18:1,2016-12-02T17:00:00Z,26.6955,-81.8138,10.4,1111122 
SCCF RECON,ioos:station:SCCF:18:1,2016-12-02T18:00:00Z,26.6955,-81.8138,16.95,1111122 
SCCF RECON,ioos:station:SCCF:18:1,2016-12-02T19:00:00Z,26.6955,-81.8138,8.43,1111122 
SCCF RECON,ioos:station:SCCF:18:1,2016-12-02T20:00:00Z,26.6955,-81.8138,4.21,1111122 
SCCF RECON,ioos:station:SCCF:18:1,2016-12-02T21:00:00Z,26.6955,-81.8138,5.45,1111122 
SCCF RECON,ioos:station:SCCF:18:1,2016-12-02T22:00:00Z,26.6955,-81.8138,5.25,1111122 
SCCF RECON,ioos:station:SCCF:18:1,2016-12-02T23:00:00Z,26.6955,-81.8138,4.46,1111122 
SCCF RECON,ioos:station:SCCF:18:1,2016-12-03T00:00:00Z,26.6955,-81.8138,5.55,1111122 
SCCF RECON,ioos:station:SCCF:18:1,2016-12-03T01:00:00Z,26.6955,-81.8138,11.23,1111122 
SCCF RECON,ioos:station:SCCF:18:1,2016-12-03T02:00:00Z,26.6955,-81.8138,6.79,1111122 
SCCF RECON,ioos:station:SCCF:18:1,2016-12-03T03:00:00Z,26.6955,-81.8138,10.73,1111122 
SCCF RECON,ioos:station:SCCF:18:1,2016-12-03T04:00:00Z,26.6955,-81.8138,15.52,1111122 
SCCF RECON,ioos:station:SCCF:18:1,2016-12-03T05:00:00Z,26.6955,-81.8138,5.32,1111122 
SCCF RECON,ioos:station:SCCF:18:1,2016-12-03T06:00:00Z,26.6955,-81.8138,7.66,1111122 
SCCF RECON,ioos:station:SCCF:18:1,2016-12-03T07:00:00Z,26.6955,-81.8138,5.49,1111122 
SCCF RECON,ioos:station:SCCF:18:1,2016-12-03T08:00:00Z,26.6955,-81.8138,4.81,1111122 
SCCF RECON,ioos:station:SCCF:18:1,2016-12-03T09:00:00Z,26.6955,-81.8138,4.3,1111122 
SCCF RECON,ioos:station:SCCF:18:1,2016-12-03T10:00:00Z,26.6955,-81.8138,7.86,1111122 
SCCF RECON,ioos:station:SCCF:18:1,2016-12-03T11:00:00Z,26.6955,-81.8138,8.37,1111122 
SCCF RECON,ioos:station:SCCF:18:1,2016-12-03T12:00:00Z,26.6955,-81.8138,6.43,1111122 
SCCF RECON,ioos:station:SCCF:18:1,2016-12-03T13:00:00Z,26.6955,-81.8138,9.99,1111122 
SCCF RECON,ioos:station:SCCF:18:1,2016-12-03T14:00:00Z,26.6955,-81.8138,9.2,1111122 
SCCF RECON,ioos:station:SCCF:18:1,2016-12-03T15:00:00Z,26.6955,-81.8138,11.22,1111122 
SCCF RECON,ioos:station:SCCF:18:1,2016-12-03T16:00:00Z,26.6955,-81.8138,15.96,1111122 
SCCF RECON,ioos:station:SCCF:18:1,2016-12-03T17:00:00Z,26.6955,-81.8138,18.15,1111122 
SCCF RECON,ioos:station:SCCF:18:1,2016-12-03T18:00:00Z,26.6955,-81.8138,18.55,1111122 
SCCF RECON,ioos:station:SCCF:18:1,2016-12-03T19:00:00Z,26.6955,-81.8138,7.39,1111122 
SCCF RECON,ioos:station:SCCF:18:1,2016-12-03T20:00:00Z,26.6955,-81.8138,9.07,1111122 
SCCF RECON,ioos:station:SCCF:18:1,2016-12-03T21:00:00Z,26.6955,-81.8138,8.59,1111122 
SCCF RECON,ioos:station:SCCF:18:1,2016-12-03T22:00:00Z,26.6955,-81.8138,7.51,1111122 
SCCF RECON,ioos:station:SCCF:18:1,2016-12-03T23:00:00Z,26.6955,-81.8138,14.39,1111122 
SCCF RECON,ioos:station:SCCF:18:1,2016-12-04T00:00:00Z,26.6955,-81.8138,12.72,1111122 
SCCF RECON,ioos:station:SCCF:18:1,2016-12-04T01:00:00Z,26.6955,-81.8138,5.71,1111122 
SCCF RECON,ioos:station:SCCF:18:1,2016-12-04T02:00:00Z,26.6955,-81.8138,9.17,1111122 
SCCF RECON,ioos:station:SCCF:18:1,2016-12-04T03:00:00Z,26.6955,-81.8138,16.99,1111122 
SCCF RECON,ioos:station:SCCF:18:1,2016-12-04T04:00:00Z,26.6955,-81.8138,16.03,1111122 
SCCF RECON,ioos:station:SCCF:18:1,2016-12-04T05:00:00Z,26.6955,-81.8138,8.15,1111122 
SCCF RECON,ioos:station:SCCF:18:1,2016-12-04T06:00:00Z,26.6955,-81.8138,9.2,1111122 
SCCF RECON,ioos:station:SCCF:18:1,2016-12-04T07:00:00Z,26.6955,-81.8138,4.74,1111122 
SCCF RECON,ioos:station:SCCF:18:1,2016-12-04T08:00:00Z,26.6955,-81.8138,14.33,1111122 
SCCF RECON,ioos:station:SCCF:18:1,2016-12-04T09:00:00Z,26.6955,-81.8138,5.61,1111122 
SCCF RECON,ioos:station:SCCF:18:1,2016-12-04T10:00:00Z,26.6955,-81.8138,5.7,1111122 
SCCF RECON,ioos:station:SCCF:18:1,2016-12-04T11:00:00Z,26.6955,-81.8138,4.52,1111122 
SCCF RECON,ioos:station:SCCF:18:1,2016-12-04T12:00:00Z,26.6955,-81.8138,10.91,1111122 
SCCF RECON,ioos:station:SCCF:18:1,2016-12-04T13:00:00Z,26.6955,-81.8138,6.69,1111122 
SCCF RECON,ioos:station:SCCF:18:1,2016-12-04T14:00:00Z,26.6955,-81.8138,18.29,1111122 
SCCF RECON,ioos:station:SCCF:18:1,2016-12-04T15:00:00Z,26.6955,-81.8138,16.84,1111122 
SCCF RECON,ioos:station:SCCF:18:1,2016-12-04T16:00:00Z,26.6955,-81.8138,27.35,1111122 
SCCF RECON,ioos:station:SCCF:18:1,2016-12-04T17:00:00Z,26.6955,-81.8138,20.75,1111122 
SCCF RECON,ioos:station:SCCF:18:1,2016-12-04T18:00:00Z,26.6955,-81.8138,22.51,1111122 
SCCF RECON,ioos:station:SCCF:18:1,2016-12-04T19:00:00Z,26.6955,-81.8138,10.79,1111122 
SCCF RECON,ioos:station:SCCF:18:1,2016-12-04T20:00:00Z,26.6955,-81.8138,15.2,1111122 
SCCF RECON,ioos:station:SCCF:18:1,2016-12-04T21:00:00Z,26.6955,-81.8138,5.59,1111122 
SCCF RECON,ioos:station:SCCF:18:1,2016-12-04T22:00:00Z,26.6955,-81.8138,16.84,1111122 
SCCF RECON,ioos:station:SCCF:18:1,2016-12-04T23:00:00Z,26.6955,-81.8138,9.36,1111122 
SCCF RECON,ioos:station:SCCF:18:1,2016-12-05T00:00:00Z,26.6955,-81.8138,13.07,1111122 
SCCF RECON,ioos:station:SCCF:18:1,2016-12-05T01:00:00Z,26.6955,-81.8138,8.67,1111122 
SCCF RECON,ioos:station:SCCF:18:1,2016-12-05T02:00:00Z,26.6955,-81.8138,7.67,1111122 
SCCF RECON,ioos:station:SCCF:18:1,2016-12-05T03:00:00Z,26.6955,-81.8138,24.45,1111122 
SCCF RECON,ioos:station:SCCF:18:1,2016-12-05T04:00:00Z,26.6955,-81.8138,25.5,1111122 
SCCF RECON,ioos:station:SCCF:18:1,2016-12-05T05:00:00Z,26.6955,-81.8138,6.54,1111122 
SCCF RECON,ioos:station:SCCF:18:1,2016-12-05T06:00:00Z,26.6955,-81.8138,4.69,1111122 
SCCF RECON,ioos:station:SCCF:18:1,2016-12-05T07:00:00Z,26.6955,-81.8138,8.34,1111122 
SCCF RECON,ioos:station:SCCF:18:1,2016-12-05T08:00:00Z,26.6955,-81.8138,5.82,1111122 
SCCF RECON,ioos:station:SCCF:18:1,2016-12-05T09:00:00Z,26.6955,-81.8138,7.81,1111122 
SCCF RECON,ioos:station:SCCF:18:1,2016-12-05T10:00:00Z,26.6955,-81.8138,4.15,1111122 
SCCF RECON,ioos:station:SCCF:18:1,2016-12-05T11:00:00Z,26.6955,-81.8138,5.88,1111122 
SCCF RECON,ioos:station:SCCF:18:1,2016-12-05T12:00:00Z,26.6955,-81.8138,7.0,1111122 
SCCF RECON,ioos:station:SCCF:18:1,2016-12-05T13:00:00Z,26.6955,-81.8138,11.95,1111122 
SCCF RECON,ioos:station:SCCF:18:1,2016-12-05T14:00:00Z,26.6955,-81.8138,15.72,1111122 
SCCF RECON,ioos:station:SCCF:18:1,2016-12-05T15:00:00Z,26.6955,-81.8138,18.26,1111122 
SCCF RECON,ioos:station:SCCF:18:1,2016-12-05T16:00:00Z,26.6955,-81.8138,8.9,1111122 
SCCF RECON,ioos:station:SCCF:18:1,2016-12-05T17:00:00Z,26.6955,-81.8138,25.57,1111122 
SCCF RECON,ioos:station:SCCF:18:1,2016-12-05T18:00:00Z,26.6955,-81.8138,13.87,1111122 
SCCF RECON,ioos:station:SCCF:18:1,2016-12-05T19:00:00Z,26.6955,-81.8138,17.2,1111122 
SCCF RECON,ioos:station:SCCF:18:1,2016-12-05T20:00:00Z,26.6955,-81.8138,8.14,1111122 
SCCF RECON,ioos:station:SCCF:18:1,2016-12-05T21:00:00Z,26.6955,-81.8138,19.62,1111122 
SCCF RECON,ioos:station:SCCF:18:1,2016-12-05T22:00:00Z,26.6955,-81.8138,13.92,1111122 
SCCF RECON,ioos:station:SCCF:18:1,2016-12-05T23:00:00Z,26.6955,-81.8138,13.57,1111122 
SCCF RECON,ioos:station:SCCF:18:1,2016-12-06T00:00:00Z,26.6955,-81.8138,12.25,1111122 
SCCF RECON,ioos:station:SCCF:18:1,2016-12-06T01:00:00Z,26.6955,-81.8138,4.9,1111122 
SCCF RECON,ioos:station:SCCF:18:1,2016-12-06T02:00:00Z,26.6955,-81.8138,4.71,1111122 
SCCF RECON,ioos:station:SCCF:18:1,2016-12-06T03:00:00Z,26.6955,-81.8138,4.22,1111122 
SCCF RECON,ioos:station:SCCF:18:1,2016-12-06T04:00:00Z,26.6955,-81.8138,26.93,1111122 
SCCF RECON,ioos:station:SCCF:18:1,2016-12-06T05:00:00Z,26.6955,-81.8138,25.84,1111122 
SCCF RECON,ioos:station:SCCF:18:1,2016-12-06T06:00:00Z,26.6955,-81.8138,7.68,1111122 
SCCF RECON,ioos:station:SCCF:18:1,2016-12-06T07:00:00Z,26.6955,-81.8138,5.65,1111122 
SCCF RECON,ioos:station:SCCF:18:1,2016-12-06T08:00:00Z,26.6955,-81.8138,6.31,1111122 
SCCF RECON,ioos:station:SCCF:18:1,2016-12-06T09:00:00Z,26.6955,-81.8138,6.16,1111122 
SCCF RECON,ioos:station:SCCF:18:1,2016-12-06T10:00:00Z,26.6955,-81.8138,4.03,1111122 
SCCF RECON,ioos:station:SCCF:18:1,2016-12-06T11:00:00Z,26.6955,-81.8138,12.61,1111122 
SCCF RECON,ioos:station:SCCF:18:1,2016-12-06T12:00:00Z,26.6955,-81.8138,6.52,1111122 
SCCF RECON,ioos:station:SCCF:18:1,2016-12-06T13:00:00Z,26.6955,-81.8138,5.69,1111122 
SCCF RECON,ioos:station:SCCF:18:1,2016-12-06T14:00:00Z,26.6955,-81.8138,9.65,1111122 
SCCF RECON,ioos:station:SCCF:18:1,2016-12-06T15:00:00Z,26.6955,-81.8138,30.53,1111122 
SCCF RECON,ioos:station:SCCF:18:1,2016-12-06T16:00:00Z,26.6955,-81.8138,24.93,1111122 
SCCF RECON,ioos:station:SCCF:18:1,2016-12-06T17:00:00Z,26.6955,-81.8138,10.58,1111122 
SCCF RECON,ioos:station:SCCF:18:1,2016-12-06T18:00:00Z,26.6955,-81.8138,26.38,1111122 
SCCF RECON,ioos:station:SCCF:18:1,2016-12-06T19:00:00Z,26.6955,-81.8138,15.86,1111122 
SCCF RECON,ioos:station:SCCF:18:1,2016-12-06T20:00:00Z,26.6955,-81.8138,10.34,1111122 
SCCF RECON,ioos:station:SCCF:18:1,2016-12-06T21:00:00Z,26.6955,-81.8138,36.62,1111122 
SCCF RECON,ioos:station:SCCF:18:1,2016-12-06T22:00:00Z,26.6955,-81.8138,9.23,1111122 
SCCF RECON,ioos:station:SCCF:18:1,2016-12-06T23:00:00Z,26.6955,-81.8138,18.64,1111122 
SCCF RECON,ioos:station:SCCF:18:1,2016-12-07T00:00:00Z,26.6955,-81.8138,23.78,1111122 
SCCF RECON,ioos:station:SCCF:18:1,2016-12-07T01:00:00Z,26.6955,-81.8138,20.3,1111122 
SCCF RECON,ioos:station:SCCF:18:1,2016-12-07T02:00:00Z,26.6955,-81.8138,15.84,1111122 
SCCF RECON,ioos:station:SCCF:18:1,2016-12-07T03:00:00Z,26.6955,-81.8138,7.47,1111122 
SCCF RECON,ioos:station:SCCF:18:1,2016-12-07T04:00:00Z,26.6955,-81.8138,33.18,1111122 
SCCF RECON,ioos:station:SCCF:18:1,2016-12-07T05:00:00Z,26.6955,-81.8138,35.75,1111122 
SCCF RECON,ioos:station:SCCF:18:1,2016-12-07T06:00:00Z,26.6955,-81.8138,22.81,1111122 
SCCF RECON,ioos:station:SCCF:18:1,2016-12-07T07:00:00Z,26.6955,-81.8138,22.63,1111122 
SCCF RECON,ioos:station:SCCF:18:1,2016-12-07T08:00:00Z,26.6955,-81.8138,22.34,1111122 
SCCF RECON,ioos:station:SCCF:18:1,2016-12-07T09:00:00Z,26.6955,-81.8138,7.27,1111122 
SCCF RECON,ioos:station:SCCF:18:1,2016-12-07T10:00:00Z,26.6955,-81.8138,4.13,1111122 
SCCF RECON,ioos:station:SCCF:18:1,2016-12-07T11:00:00Z,26.6955,-81.8138,9.26,1111122 
SCCF RECON,ioos:station:SCCF:18:1,2016-12-07T12:00:00Z,26.6955,-81.8138,6.76,1111122 
SCCF RECON,ioos:station:SCCF:18:1,2016-12-07T13:00:00Z,26.6955,-81.8138,5.57,1111122 
SCCF RECON,ioos:station:SCCF:18:1,2016-12-07T14:00:00Z,26.6955,-81.8138,4.86,1111122 
SCCF RECON,ioos:station:SCCF:18:1,2016-12-07T15:00:00Z,26.6955,-81.8138,5.42,1111122 
SCCF RECON,ioos:station:SCCF:18:1,2016-12-07T16:00:00Z,26.6955,-81.8138,6.56,1111122 
SCCF RECON,ioos:station:SCCF:18:1,2016-12-07T17:00:00Z,26.6955,-81.8138,5.84,1111122 
SCCF RECON,ioos:station:SCCF:18:1,2016-12-07T18:00:00Z,26.6955,-81.8138,5.2,1111122 
SCCF RECON,ioos:station:SCCF:18:1,2016-12-07T19:00:00Z,26.6955,-81.8138,6.06,1111122 
SCCF RECON,ioos:station:SCCF:18:1,2016-12-07T20:00:00Z,26.6955,-81.8138,8.15,1111122 
SCCF RECON,ioos:station:SCCF:18:1,2016-12-07T21:00:00Z,26.6955,-81.8138,11.34,1111122 
SCCF RECON,ioos:station:SCCF:18:1,2016-12-07T22:00:00Z,26.6955,-81.8138,8.81,1111122 
SCCF RECON,ioos:station:SCCF:18:1,2016-12-07T23:00:00Z,26.6955,-81.8138,4.16,1111122 
SCCF RECON,ioos:station:SCCF:18:1,2016-12-08T00:00:00Z,26.6955,-81.8138,5.8,1111122 
SCCF RECON,ioos:station:SCCF:18:1,2016-12-08T01:00:00Z,26.6955,-81.8138,5.77,1111122 
SCCF RECON,ioos:station:SCCF:18:1,2016-12-08T02:00:00Z,26.6955,-81.8138,4.58,1111122 
SCCF RECON,ioos:station:SCCF:18:1,2016-12-08T03:00:00Z,26.6955,-81.8138,4.48,1111122 
SCCF RECON,ioos:station:SCCF:18:1,2016-12-08T04:00:00Z,26.6955,-81.8138,4.35,1111122 
SCCF RECON,ioos:station:SCCF:18:1,2016-12-08T05:00:00Z,26.6955,-81.8138,4.61,1111122 
SCCF RECON,ioos:station:SCCF:18:1,2016-12-08T06:00:00Z,26.6955,-81.8138,5.08,1111122 
SCCF RECON,ioos:station:SCCF:18:1,2016-12-08T07:00:00Z,26.6955,-81.8138,4.72,1111122 
SCCF RECON,ioos:station:SCCF:18:1,2016-12-08T08:00:00Z,26.6955,-81.8138,4.48,1111122 
SCCF RECON,ioos:station:SCCF:18:1,2016-12-08T09:00:00Z,26.6955,-81.8138,4.29,1111122 
SCCF RECON,ioos:station:SCCF:18:1,2016-12-08T10:00:00Z,26.6955,-81.8138,4.28,1111122 
SCCF RECON,ioos:station:SCCF:18:1,2016-12-08T11:00:00Z,26.6955,-81.8138,4.28,1111122 
SCCF RECON,ioos:station:SCCF:18:1,2016-12-08T12:00:00Z,26.6955,-81.8138,4.15,1111122 
SCCF RECON,ioos:station:SCCF:18:1,2016-12-08T13:00:00Z,26.6955,-81.8138,4.07,1111122 
SCCF RECON,ioos:station:SCCF:18:1,2016-12-08T14:00:00Z,26.6955,-81.8138,4.21,1111122 
SCCF RECON,ioos:station:SCCF:18:1,2016-12-08T15:00:00Z,26.6955,-81.8138,3.99,1111122 
SCCF RECON,ioos:station:SCCF:18:1,2016-12-08T16:00:00Z,26.6955,-81.8138,4.1,1111122 
SCCF RECON,ioos:station:SCCF:18:1,2016-12-08T17:00:00Z,26.6955,-81.8138,4.65,1111122 
SCCF RECON,ioos:station:SCCF:18:1,2016-12-08T18:00:00Z,26.6955,-81.8138,4.69,1111122 
SCCF RECON,ioos:station:SCCF:18:1,2016-12-08T19:00:00Z,26.6955,-81.8138,4.74,1111122 
SCCF RECON,ioos:station:SCCF:18:1,2016-12-08T20:00:00Z,26.6955,-81.8138,4.41,1111122 
SCCF RECON,ioos:station:SCCF:18:1,2016-12-08T21:00:00Z,26.6955,-81.8138,4.45,1111122 
SCCF RECON,ioos:station:SCCF:18:1,2016-12-08T22:00:00Z,26.6955,-81.8138,4.79,1111122 
SCCF RECON,ioos:station:SCCF:18:1,2016-12-08T23:00:00Z,26.6955,-81.8138,4.55,1111122 
SCCF RECON,ioos:station:SCCF:18:1,2016-12-09T00:00:00Z,26.6955,-81.8138,4.28,1111122 
SCCF RECON,ioos:station:SCCF:18:1,2016-12-09T01:00:00Z,26.6955,-81.8138,4.22,1111122 
SCCF RECON,ioos:station:SCCF:18:1,2016-12-09T02:00:00Z,26.6955,-81.8138,4.37,1111122 
SCCF RECON,ioos:station:SCCF:18:1,2016-12-09T03:00:00Z,26.6955,-81.8138,4.69,1111122 
SCCF RECON,ioos:station:SCCF:18:1,2016-12-09T04:00:00Z,26.6955,-81.8138,4.37,1111122 
SCCF RECON,ioos:station:SCCF:18:1,2016-12-09T05:00:00Z,26.6955,-81.8138,4.46,1111122 
SCCF RECON,ioos:station:SCCF:18:1,2016-12-09T06:00:00Z,26.6955,-81.8138,4.15,1111122 
SCCF RECON,ioos:station:SCCF:18:1,2016-12-09T07:00:00Z,26.6955,-81.8138,4.36,1111122 
SCCF RECON,ioos:station:SCCF:18:1,2016-12-09T08:00:00Z,26.6955,-81.8138,4.47,1111122 
SCCF RECON,ioos:station:SCCF:18:1,2016-12-09T09:00:00Z,26.6955,-81.8138,4.12,1111122 
SCCF RECON,ioos:station:SCCF:18:1,2016-12-09T10:00:00Z,26.6955,-81.8138,4.28,1111122 
SCCF RECON,ioos:station:SCCF:18:1,2016-12-09T11:00:00Z,26.6955,-81.8138,4.39,1111122 
SCCF RECON,ioos:station:SCCF:18:1,2016-12-09T12:00:00Z,26.6955,-81.8138,4.29,1111122 
SCCF RECON,ioos:station:SCCF:18:1,2016-12-09T13:00:00Z,26.6955,-81.8138,4.28,1111122 
SCCF RECON,ioos:station:SCCF:18:1,2016-12-09T14:00:00Z,26.6955,-81.8138,4.39,1111122 
SCCF RECON,ioos:station:SCCF:18:1,2016-12-09T15:00:00Z,26.6955,-81.8138,4.44,1111122 
SCCF RECON,ioos:station:SCCF:18:1,2016-12-09T16:00:00Z,26.6955,-81.8138,4.82,1111122 
SCCF RECON,ioos:station:SCCF:18:1,2016-12-09T17:00:00Z,26.6955,-81.8138,4.67,1111122 
SCCF RECON,ioos:station:SCCF:18:1,2016-12-09T18:00:00Z,26.6955,-81.8138,4.85,1111122 
SCCF RECON,ioos:station:SCCF:18:1,2016-12-09T19:00:00Z,26.6955,-81.8138,4.49,1111122 
SCCF RECON,ioos:station:SCCF:18:1,2016-12-09T20:00:00Z,26.6955,-81.8138,4.17,1111122 
SCCF RECON,ioos:station:SCCF:18:1,2016-12-09T21:00:00Z,26.6955,-81.8138,4.25,1111122 
SCCF RECON,ioos:station:SCCF:18:1,2016-12-09T22:00:00Z,26.6955,-81.8138,4.34,1111122 
SCCF RECON,ioos:station:SCCF:18:1,2016-12-09T23:00:00Z,26.6955,-81.8138,4.8,1111122 
SCCF RECON,ioos:station:SCCF:18:1,2016-12-10T00:00:00Z,26.6955,-81.8138,4.38,1111122 
SCCF RECON,ioos:station:SCCF:18:1,2016-12-10T01:00:00Z,26.6955,-81.8138,4.41,1111122 
SCCF RECON,ioos:station:SCCF:18:1,2016-12-10T02:00:00Z,26.6955,-81.8138,4.31,1111122 
SCCF RECON,ioos:station:SCCF:18:1,2016-12-10T03:00:00Z,26.6955,-81.8138,4.27,1111122 
SCCF RECON,ioos:station:SCCF:18:1,2016-12-10T04:00:00Z,26.6955,-81.8138,4.26,1111122 
SCCF RECON,ioos:station:SCCF:18:1,2016-12-10T05:00:00Z,26.6955,-81.8138,4.24,1111122 
SCCF RECON,ioos:station:SCCF:18:1,2016-12-10T06:00:00Z,26.6955,-81.8138,4.17,1111122 
SCCF RECON,ioos:station:SCCF:18:1,2016-12-10T07:00:00Z,26.6955,-81.8138,4.23,1111122 
SCCF RECON,ioos:station:SCCF:18:1,2016-12-10T08:00:00Z,26.6955,-81.8138,4.13,1111122 
SCCF RECON,ioos:station:SCCF:18:1,2016-12-10T09:00:00Z,26.6955,-81.8138,4.25,1111122 
SCCF RECON,ioos:station:SCCF:18:1,2016-12-10T10:00:00Z,26.6955,-81.8138,4.16,1111122 
SCCF RECON,ioos:station:SCCF:18:1,2016-12-10T11:00:00Z,26.6955,-81.8138,4.12,1111122 
SCCF RECON,ioos:station:SCCF:18:1,2016-12-10T12:00:00Z,26.6955,-81.8138,4.15,1111122 
SCCF RECON,ioos:station:SCCF:18:1,2016-12-10T13:00:00Z,26.6955,-81.8138,4.16,1111122 
SCCF RECON,ioos:station:SCCF:18:1,2016-12-10T14:00:00Z,26.6955,-81.8138,4.24,1111122 
SCCF RECON,ioos:station:SCCF:18:1,2016-12-10T15:00:00Z,26.6955,-81.8138,4.37,1111122 
SCCF RECON,ioos:station:SCCF:18:1,2016-12-10T16:00:00Z,26.6955,-81.8138,4.37,1111122 
SCCF RECON,ioos:station:SCCF:18:1,2016-12-10T17:00:00Z,26.6955,-81.8138,4.62,1111122 
SCCF RECON,ioos:station:SCCF:18:1,2016-12-10T18:00:00Z,26.6955,-81.8138,4.78,1111122 
SCCF RECON,ioos:station:SCCF:18:1,2016-12-10T19:00:00Z,26.6955,-81.8138,5.03,1111122 
SCCF RECON,ioos:station:SCCF:18:1,2016-12-10T20:00:00Z,26.6955,-81.8138,4.91,1111122 
SCCF RECON,ioos:station:SCCF:18:1,2016-12-10T21:00:00Z,26.6955,-81.8138,4.64,1111122 
SCCF RECON,ioos:station:SCCF:18:1,2016-12-10T22:00:00Z,26.6955,-81.8138,4.42,1111122 
SCCF RECON,ioos:station:SCCF:18:1,2016-12-10T23:00:00Z,26.6955,-81.8138,4.29,1111122 
SCCF RECON,ioos:station:SCCF:18:1,2016-12-11T00:00:00Z,26.6955,-81.8138,4.22,1111122 
SCCF RECON,ioos:station:SCCF:18:1,2016-12-11T01:00:00Z,26.6955,-81.8138,4.44,1111122 
SCCF RECON,ioos:station:SCCF:18:1,2016-12-11T02:00:00Z,26.6955,-81.8138,4.45,1111122 
SCCF RECON,ioos:station:SCCF:18:1,2016-12-11T03:00:00Z,26.6955,-81.8138,4.48,1111122 
SCCF RECON,ioos:station:SCCF:18:1,2016-12-11T04:00:00Z,26.6955,-81.8138,4.41,1111122 
SCCF RECON,ioos:station:SCCF:18:1,2016-12-11T05:00:00Z,26.6955,-81.8138,4.4,1111122 
SCCF RECON,ioos:station:SCCF:18:1,2016-12-11T06:00:00Z,26.6955,-81.8138,4.4,1111122 
SCCF RECON,ioos:station:SCCF:18:1,2016-12-11T07:00:00Z,26.6955,-81.8138,4.24,1111122 
SCCF RECON,ioos:station:SCCF:18:1,2016-12-11T08:00:00Z,26.6955,-81.8138,4.28,1111122 
SCCF RECON,ioos:station:SCCF:18:1,2016-12-11T09:00:00Z,26.6955,-81.8138,4.15,1111122 
SCCF RECON,ioos:station:SCCF:18:1,2016-12-11T10:00:00Z,26.6955,-81.8138,4.21,1111122 
SCCF RECON,ioos:station:SCCF:18:1,2016-12-11T11:00:00Z,26.6955,-81.8138,4.14,1111122 
SCCF RECON,ioos:station:SCCF:18:1,2016-12-11T12:00:00Z,26.6955,-81.8138,4.1,1111122 
SCCF RECON,ioos:station:SCCF:18:1,2016-12-11T13:00:00Z,26.6955,-81.8138,4.18,1111122 
SCCF RECON,ioos:station:SCCF:18:1,2016-12-11T14:00:00Z,26.6955,-81.8138,4.29,1111122 
SCCF RECON,ioos:station:SCCF:18:1,2016-12-11T15:00:00Z,26.6955,-81.8138,4.36,1111122 
SCCF RECON,ioos:station:SCCF:18:1,2016-12-11T16:00:00Z,26.6955,-81.8138,4.58,1111122 
SCCF RECON,ioos:station:SCCF:18:1,2016-12-11T17:00:00Z,26.6955,-81.8138,4.64,1111122 
SCCF RECON,ioos:station:SCCF:18:1,2016-12-11T18:00:00Z,26.6955,-81.8138,4.64,1111122 
SCCF RECON,ioos:station:SCCF:18:1,2016-12-11T19:00:00Z,26.6955,-81.8138,4.83,1111122 
SCCF RECON,ioos:station:SCCF:18:1,2016-12-11T20:00:00Z,26.6955,-81.8138,4.8,1111122 
SCCF RECON,ioos:station:SCCF:18:1,2016-12-11T21:00:00Z,26.6955,-81.8138,4.82,1111122 
SCCF RECON,ioos:station:SCCF:18:1,2016-12-11T22:00:00Z,26.6955,-81.8138,4.69,1111122 
SCCF RECON,ioos:station:SCCF:18:1,2016-12-11T23:00:00Z,26.6955,-81.8138,4.64,1111122 
SCCF RECON,ioos:station:SCCF:18:1,2016-12-12T00:00:00Z,26.6955,-81.8138,4.66,1111122 
SCCF RECON,ioos:station:SCCF:18:1,2016-12-12T01:00:00Z,26.6955,-81.8138,4.34,1111122 
SCCF RECON,ioos:station:SCCF:18:1,2016-12-12T02:00:00Z,26.6955,-81.8138,4.63,1111122 
SCCF RECON,ioos:station:SCCF:18:1,2016-12-12T03:00:00Z,26.6955,-81.8138,4.47,1111122 
SCCF RECON,ioos:station:SCCF:18:1,2016-12-12T04:00:00Z,26.6955,-81.8138,4.59,1111122 
SCCF RECON,ioos:station:SCCF:18:1,2016-12-12T05:00:00Z,26.6955,-81.8138,4.57,1111122 
SCCF RECON,ioos:station:SCCF:18:1,2016-12-12T06:00:00Z,26.6955,-81.8138,4.47,1111122 
SCCF RECON,ioos:station:SCCF:18:1,2016-12-12T07:00:00Z,26.6955,-81.8138,4.45,1111122 
SCCF RECON,ioos:station:SCCF:18:1,2016-12-12T08:00:00Z,26.6955,-81.8138,4.48,1111122 
SCCF RECON,ioos:station:SCCF:18:1,2016-12-12T09:00:00Z,26.6955,-81.8138,4.33,1111122 
SCCF RECON,ioos:station:SCCF:18:1,2016-12-12T10:00:00Z,26.6955,-81.8138,4.36,1111122 
SCCF RECON,ioos:station:SCCF:18:1,2016-12-12T11:00:00Z,26.6955,-81.8138,4.27,1111122 
SCCF RECON,ioos:station:SCCF:18:1,2016-12-12T12:00:00Z,26.6955,-81.8138,4.2,1111122 